TimeMST,TemperatureF,Dew PointF,Humidity,Sea Level PressureIn,VisibilityMPH,Wind Direction,Wind SpeedMPH,Gust SpeedMPH,PrecipitationIn,Events,Conditions,WindDirDegrees,DateUTC
12:53 AM,12.9,6.1,74,30.35,10.0,SSW,6.9,-,N/A,,Clear,210,2014-01-16 07:53:00
1:53 AM,14.0,6.1,71,30.35,10.0,South,5.8,-,N/A,,Clear,180,2014-01-16 08:53:00
2:53 AM,12.0,3.9,70,30.36,10.0,Calm,Calm,-,N/A,,Clear,0,2014-01-16 09:53:00
3:53 AM,14.0,5.0,67,30.34,10.0,SSW,6.9,-,N/A,,Clear,210,2014-01-16 10:53:00
4:53 AM,9.0,3.0,77,30.41,10.0,Variable,4.6,-,N/A,,Clear,0,2014-01-16 11:53:00
5:53 AM,8.1,1.0,73,30.46,10.0,South,6.9,-,N/A,,Clear,190,2014-01-16 12:53:00
6:53 AM,7.0,-0.0,73,30.50,10.0,SSW,6.9,-,N/A,,Clear,210,2014-01-16 13:53:00
7:53 AM,7.0,1.0,77,30.51,10.0,SSW,5.8,-,N/A,,Clear,200,2014-01-16 14:53:00
8:53 AM,17.1,5.0,59,30.46,10.0,South,5.8,-,N/A,,Clear,180,2014-01-16 15:53:00
9:53 AM,23.0,8.1,53,30.46,10.0,Calm,Calm,-,N/A,,Clear,0,2014-01-16 16:53:00
10:53 AM,28.9,8.1,41,30.39,10.0,Calm,Calm,-,N/A,,Clear,0,2014-01-16 17:53:00
11:53 AM,33.1,10.0,38,30.35,10.0,North,3.5,-,N/A,,Clear,360,2014-01-16 18:53:00
12:53 PM,36.0,9.0,33,30.32,10.0,NNE,5.8,-,N/A,,Clear,20,2014-01-16 19:53:00
1:53 PM,36.0,9.0,33,30.31,10.0,North,8.1,-,N/A,,Clear,10,2014-01-16 20:53:00
2:53 PM,36.0,10.0,34,30.30,10.0,NNE,9.2,-,N/A,,Clear,20,2014-01-16 21:53:00
3:53 PM,36.0,9.0,33,30.32,10.0,North,6.9,-,N/A,,Clear,350,2014-01-16 22:53:00
4:53 PM,30.0,9.0,41,30.37,10.0,WNW,4.6,-,N/A,,Clear,300,2014-01-16 23:53:00
5:53 PM,26.1,8.1,47,30.42,10.0,SSW,3.5,-,N/A,,Clear,200,2014-01-17 00:53:00
6:53 PM,24.1,9.0,53,30.45,10.0,South,8.1,-,N/A,,Clear,190,2014-01-17 01:53:00
7:53 PM,21.0,8.1,57,30.48,10.0,SSW,9.2,-,N/A,,Clear,200,2014-01-17 02:53:00
8:53 PM,16.0,6.1,65,30.45,10.0,SSW,6.9,-,N/A,,Clear,200,2014-01-17 03:53:00
9:53 PM,12.9,3.9,67,30.45,10.0,SSW,8.1,-,N/A,,Clear,200,2014-01-17 04:53:00
10:53 PM,15.1,5.0,64,30.40,10.0,South,8.1,-,N/A,,Clear,190,2014-01-17 05:53:00
11:53 PM,12.9,3.9,67,30.39,10.0,SSW,9.2,-,N/A,,Clear,210,2014-01-17 06:53:00